Telstar 302

operational
NORAD ID: 15237 Int'l Des: 1984-093 Owner: ATTS Country: US
HEOCIRCULAR

About Telstar 302

Description loading...

Live Position

Loading 3D Globe...

Upcoming Passes

Altitude History

Altitude vs Time

uPlot chart will show altitude changes over time

Two-Line Element Set

1 15237U 84093D 26062.27040889 -.00000172 00000-0 00000-0 0 9997
2 15237 14.1891 346.1539 0001292 250.3219 189.6045 0.99787743 45388
Epoch: Mar 3, 2026 • Age: 46 hours

Current Status

Altitude 35921.6 km
Velocity 3.07 km/s
Sub-Earth Point -11.49°S, 165.71°E
Launch Date Aug 30, 1984
Age 41.5 years
Type other

Technical Details

Classification Payload
Mass 619.00 kg
Dry Mass 522.00 kg
Total Mass 1225.00 kg
Length 6.60 m
Diameter 2.20 m
Span 6.60 m
Shape Cyl
Manufacturer HSES
Bus Type HS-376
Phase Status In Orbit
Owner/State ATTS/US

Large Constellations

Loading constellations...